{"data":{"norad_id":54845,"intl_designator":"2022-177AB","name":"STARLINK-5082","alt_names":[],"object_type":"PAYLOAD","status":"ACTIVE","operator":null,"country":"US","launch_date":"2022-12-28","launch_site_code":"AFETR","launch_vehicle":null,"mission":null,"orbit_class":"UNKNOWN","rcs_meters":null,"size_class":null,"mass_kg":null,"dimensions":null,"purposes":["comms"],"wikipedia_slug":null,"has_3d_model":false,"image_url":null,"decayed_at":null,"tle_current":{"epoch":"2026-05-25T03:12:32.366016Z","epoch_age_seconds":59379,"freshness":"FRESH","line1":"1 54845U 22177AB  26145.13370794  .00000142  00000+0  14659-4 0  9992","line2":"2 54845  43.0023  61.0089 0000513 267.0152  93.0641 15.27587255188654","mean_motion":15.27587255,"eccentricity":5.13e-5,"inclination_deg":43.0023,"raan_deg":61.0089,"arg_perigee_deg":267.0152,"mean_anomaly_deg":93.0641,"bstar":1.4659e-5,"rev_number":18865,"period_min":94.26630101074,"perigee_km":482.67539431337,"apogee_km":483.37934977794,"semimajor_km":6861.1643720457,"source":"CELESTRAK","updated_at":"2026-05-25T13:38:17.724614Z"}}}